Wetterdaten: Samstag, 21.12.2013
Datum Zeit Temperatur Luftfeuchte Luftdruck Regen Wind Richtung Richtung Taupunkt Windchill Windben
21.12.2013 00:00 -1,1 C 96 % 1030,9 hPa 0,0 l/m 0,0 km/h (0 Bft) S 180 -1,7 C 3,7 C 0,0 km/h (0 Bft)
21.12.2013 00:05 -1,6 C 96 % 1030,9 hPa 0,0 l/m 0,0 km/h (0 Bft) S 180 -2,2 C 3,7 C 0,0 km/h (0 Bft)
21.12.2013 00:10 -1,6 C 96 % 1030,9 hPa 0,0 l/m 0,0 km/h (0 Bft) S 180 -2,2 C 3,7 C 0,0 km/h (0 Bft)
21.12.2013 00:15 -1,7 C 96 % 1030,9 hPa 0,0 l/m 0,0 km/h (0 Bft) S 180 -2,3 C 3,7 C 0,0 km/h (0 Bft)
21.12.2013 00:20 -1,8 C 96 % 1031,0 hPa 0,0 l/m 0,0 km/h (0 Bft) S 180 -2,4 C 3,7 C 0,0 km/h (0 Bft)
21.12.2013 00:25 -1,7 C 96 % 1031,0 hPa 0,0 l/m 0,0 km/h (0 Bft) S 180 -2,3 C 3,7 C 0,0 km/h (0 Bft)
21.12.2013 00:30 -1,8 C 96 % 1031,0 hPa 0,0 l/m 0,0 km/h (0 Bft) S 180 -2,4 C 3,7 C 0,0 km/h (0 Bft)
21.12.2013 00:35 -2,0 C 96 % 1031,0 hPa 0,0 l/m 0,0 km/h (0 Bft) S 180 -2,6 C 3,7 C 0,0 km/h (0 Bft)
21.12.2013 00:40 -2,0 C 96 % 1031,1 hPa 0,0 l/m 0,0 km/h (0 Bft) S 180 -2,6 C 3,7 C 0,0 km/h (0 Bft)
21.12.2013 00:45 -2,3 C 96 % 1031,1 hPa 0,0 l/m 0,0 km/h (0 Bft) S 180 -2,8 C 3,7 C 0,0 km/h (0 Bft)
21.12.2013 00:50 -2,4 C 96 % 1031,1 hPa 0,0 l/m 0,0 km/h (0 Bft) S 180 -2,9 C 3,7 C 0,0 km/h (0 Bft)
21.12.2013 00:55 -2,2 C 96 % 1031,1 hPa 0,0 l/m 0,0 km/h (0 Bft) S 180 -2,7 C 3,7 C 0,0 km/h (0 Bft)
21.12.2013 01:00 -2,0 C 96 % 1031,1 hPa 0,0 l/m 0,0 km/h (0 Bft) S 180 -2,6 C 3,7 C 0,0 km/h (0 Bft)
21.12.2013 01:05 -2,3 C 96 % 1031,1 hPa 0,0 l/m 0,0 km/h (0 Bft) S 180 -2,8 C 3,7 C 0,0 km/h (0 Bft)
21.12.2013 01:10 -1,9 C 96 % 1031,1 hPa 0,0 l/m 0,0 km/h (0 Bft) S 180 -2,5 C 3,7 C 0,0 km/h (0 Bft)
21.12.2013 01:15 -2,3 C 96 % 1031,1 hPa 0,0 l/m 0,0 km/h (0 Bft) S 180 -2,8 C 3,7 C 0,0 km/h (0 Bft)
21.12.2013 01:20 -2,5 C 96 % 1031,0 hPa 0,0 l/m 0,0 km/h (0 Bft) S 180 -3,0 C 3,7 C 0,0 km/h (0 Bft)
21.12.2013 01:25 -2,8 C 96 % 1031,0 hPa 0,0 l/m 0,0 km/h (0 Bft) S 180 -3,3 C 3,7 C 0,0 km/h (0 Bft)
21.12.2013 01:30 -2,6 C 96 % 1031,0 hPa 0,0 l/m 0,0 km/h (0 Bft) S 180 -3,1 C 3,7 C 0,0 km/h (0 Bft)
21.12.2013 01:35 -2,9 C 96 % 1031,0 hPa 0,0 l/m 0,0 km/h (0 Bft) S 180 -3,4 C 3,7 C 0,0 km/h (0 Bft)
21.12.2013 01:40 -3,0 C 96 % 1031,2 hPa 0,0 l/m 0,0 km/h (0 Bft) S 180 -3,5 C 3,7 C 0,0 km/h (0 Bft)
21.12.2013 01:45 -3,1 C 96 % 1031,2 hPa 0,0 l/m 0,0 km/h (0 Bft) S 180 -3,6 C 3,7 C 0,0 km/h (0 Bft)
21.12.2013 01:50 -3,2 C 96 % 1031,2 hPa 0,0 l/m 0,0 km/h (0 Bft) S 180 -3,7 C 3,7 C 0,0 km/h (0 Bft)
21.12.2013 01:55 -3,4 C 96 % 1031,2 hPa 0,0 l/m 0,0 km/h (0 Bft) S 180 -3,9 C 3,7 C 0,0 km/h (0 Bft)
21.12.2013 02:00 -3,3 C 96 % 1031,3 hPa 0,0 l/m 0,0 km/h (0 Bft) S 180 -3,8 C 3,7 C 0,0 km/h (0 Bft)
21.12.2013 02:05 -2,7 C 96 % 1031,3 hPa 0,0 l/m 0,0 km/h (0 Bft) S 180 -3,2 C 3,7 C 0,0 km/h (0 Bft)
21.12.2013 02:10 -3,2 C 96 % 1031,3 hPa 0,0 l/m 0,0 km/h (0 Bft) S 180 -3,7 C 3,7 C 0,0 km/h (0 Bft)
21.12.2013 02:15 -3,2 C 96 % 1031,3 hPa 0,0 l/m 0,0 km/h (0 Bft) S 180 -3,7 C 3,7 C 0,0 km/h (0 Bft)
21.12.2013 02:20 -3,0 C 96 % 1031,1 hPa 0,0 l/m 0,0 km/h (0 Bft) S 180 -3,5 C 3,7 C 0,0 km/h (0 Bft)
21.12.2013 02:25 -2,3 C 96 % 1031,1 hPa 0,0 l/m 0,0 km/h (0 Bft) S 180 -2,8 C 3,7 C 0,0 km/h (0 Bft)
21.12.2013 02:30 -2,7 C 96 % 1031,1 hPa 0,0 l/m 0,0 km/h (0 Bft) S 180 -3,2 C 3,7 C 0,0 km/h (0 Bft)
21.12.2013 02:33 -2,7 C 96 % 1031,1 hPa 0,0 l/m 0,0 km/h (0 Bft) S 180 -3,2 C 3,7 C 0,0 km/h (0 Bft)
21.12.2013 02:35 -2,7 C 96 % 1031,1 hPa 0,0 l/m 0,0 km/h (0 Bft) S 180 -3,2 C 3,7 C 0,0 km/h (0 Bft)
21.12.2013 02:40 -3,0 C 96 % 1030,9 hPa 0,0 l/m 0,0 km/h (0 Bft) S 180 -3,5 C 3,7 C 0,0 km/h (0 Bft)
21.12.2013 02:45 -3,2 C 96 % 1030,9 hPa 0,0 l/m 0,0 km/h (0 Bft) S 180 -3,7 C 3,7 C 0,0 km/h (0 Bft)
21.12.2013 02:50 -3,0 C 96 % 1030,9 hPa 0,0 l/m 0,0 km/h (0 Bft) S 180 -3,5 C 3,7 C 0,0 km/h (0 Bft)
21.12.2013 02:55 -3,1 C 96 % 1030,9 hPa 0,0 l/m 0,0 km/h (0 Bft) S 180 -3,6 C 3,7 C 0,0 km/h (0 Bft)
21.12.2013 03:00 -2,7 C 96 % 1031,1 hPa 0,0 l/m 0,0 km/h (0 Bft) S 180 -3,2 C 3,7 C 0,0 km/h (0 Bft)
21.12.2013 03:05 -2,4 C 96 % 1031,1 hPa 0,0 l/m 0,0 km/h (0 Bft) S 180 -2,9 C 3,7 C 0,0 km/h (0 Bft)
21.12.2013 03:10 -2,2 C 96 % 1031,1 hPa 0,0 l/m 0,0 km/h (0 Bft) S 180 -2,7 C 3,7 C 0,0 km/h (0 Bft)
21.12.2013 03:15 -2,6 C 96 % 1031,1 hPa 0,0 l/m 0,0 km/h (0 Bft) S 180 -3,1 C 3,7 C 0,0 km/h (0 Bft)
21.12.2013 03:20 -2,8 C 96 % 1030,6 hPa 0,0 l/m 0,0 km/h (0 Bft) S 180 -3,3 C 3,7 C 0,0 km/h (0 Bft)
21.12.2013 03:25 -3,5 C 96 % 1030,6 hPa 0,0 l/m 0,0 km/h (0 Bft) S 180 -4,0 C 3,7 C 0,0 km/h (0 Bft)
21.12.2013 03:30 -3,8 C 95 % 1030,6 hPa 0,0 l/m 0,0 km/h (0 Bft) S 180 -4,5 C 3,7 C 0,0 km/h (0 Bft)
21.12.2013 03:35 -3,8 C 95 % 1030,6 hPa 0,0 l/m 0,0 km/h (0 Bft) S 180 -4,5 C 3,7 C 0,0 km/h (0 Bft)
21.12.2013 03:40 -3,8 C 95 % 1030,4 hPa 0,0 l/m 0,0 km/h (0 Bft) S 180 -4,5 C 3,7 C 0,0 km/h (0 Bft)
21.12.2013 03:45 -3,7 C 95 % 1030,4 hPa 0,0 l/m 0,0 km/h (0 Bft) S 180 -4,4 C 3,7 C 0,0 km/h (0 Bft)
21.12.2013 03:50 -3,6 C 95 % 1030,4 hPa 0,0 l/m 0,0 km/h (0 Bft) S 180 -4,3 C 3,7 C 0,0 km/h (0 Bft)
21.12.2013 03:55 -3,8 C 95 % 1030,4 hPa 0,0 l/m 0,0 km/h (0 Bft) S 180 -4,5 C 3,7 C 0,0 km/h (0 Bft)
21.12.2013 04:00 -3,7 C 95 % 1030,5 hPa 0,0 l/m 0,0 km/h (0 Bft) S 180 -4,4 C 3,7 C 0,0 km/h (0 Bft)
21.12.2013 04:05 -4,0 C 95 % 1030,5 hPa 0,0 l/m 0,0 km/h (0 Bft) S 180 -4,7 C 3,7 C 0,0 km/h (0 Bft)
21.12.2013 04:10 -4,0 C 95 % 1030,5 hPa 0,0 l/m 0,0 km/h (0 Bft) S 180 -4,7 C 3,7 C 0,0 km/h (0 Bft)
21.12.2013 04:15 -4,2 C 95 % 1030,5 hPa 0,0 l/m 0,0 km/h (0 Bft) S 180 -4,9 C 3,7 C 0,0 km/h (0 Bft)
21.12.2013 04:20 -3,9 C 95 % 1030,6 hPa 0,0 l/m 0,0 km/h (0 Bft) S 180 -4,6 C 3,7 C 0,0 km/h (0 Bft)
21.12.2013 04:25 -3,1 C 95 % 1030,6 hPa 0,0 l/m 0,0 km/h (0 Bft) S 180 -3,8 C 3,7 C 0,0 km/h (0 Bft)
21.12.2013 04:30 -2,8 C 95 % 1030,6 hPa 0,0 l/m 0,0 km/h (0 Bft) S 180 -3,5 C 3,7 C 0,0 km/h (0 Bft)
21.12.2013 04:35 -3,4 C 95 % 1030,6 hPa 0,0 l/m 0,0 km/h (0 Bft) S 180 -4,1 C 3,7 C 0,0 km/h (0 Bft)
21.12.2013 04:40 -4,1 C 95 % 1030,9 hPa 0,0 l/m 0,0 km/h (0 Bft) S 180 -4,8 C 3,7 C 0,0 km/h (0 Bft)
21.12.2013 04:45 -4,2 C 95 % 1030,9 hPa 0,0 l/m 0,0 km/h (0 Bft) S 180 -4,9 C 3,7 C 0,0 km/h (0 Bft)
21.12.2013 04:50 -3,8 C 95 % 1030,9 hPa 0,0 l/m 0,0 km/h (0 Bft) S 180 -4,5 C 3,7 C 0,0 km/h (0 Bft)
21.12.2013 04:55 -3,1 C 95 % 1030,9 hPa 0,0 l/m 0,0 km/h (0 Bft) S 180 -3,8 C 3,7 C 0,0 km/h (0 Bft)
21.12.2013 05:00 -3,6 C 95 % 1031,3 hPa 0,0 l/m 0,0 km/h (0 Bft) S 180 -4,3 C 3,7 C 0,0 km/h (0 Bft)
21.12.2013 05:05 -3,2 C 95 % 1031,3 hPa 0,0 l/m 0,0 km/h (0 Bft) S 180 -3,9 C 3,7 C 0,0 km/h (0 Bft)
21.12.2013 05:10 -2,6 C 95 % 1031,3 hPa 0,0 l/m 0,0 km/h (0 Bft) S 180 -3,3 C 3,7 C 0,0 km/h (0 Bft)
21.12.2013 05:15 -2,6 C 95 % 1031,3 hPa 0,0 l/m 0,0 km/h (0 Bft) S 180 -3,3 C 3,7 C 0,0 km/h (0 Bft)
21.12.2013 05:20 -2,5 C 95 % 1031,2 hPa 0,0 l/m 0,0 km/h (0 Bft) S 180 -3,2 C 3,7 C 0,0 km/h (0 Bft)
21.12.2013 05:25 -2,4 C 95 % 1031,2 hPa 0,0 l/m 0,0 km/h (0 Bft) S 180 -3,1 C 3,7 C 0,0 km/h (0 Bft)
21.12.2013 05:30 -2,5 C 95 % 1031,2 hPa 0,0 l/m 0,0 km/h (0 Bft) S 180 -3,2 C 3,7 C 0,0 km/h (0 Bft)
21.12.2013 05:35 -3,3 C 95 % 1031,2 hPa 0,0 l/m 0,0 km/h (0 Bft) S 180 -4,0 C 3,7 C 0,0 km/h (0 Bft)
21.12.2013 05:40 -3,7 C 95 % 1031,3 hPa 0,0 l/m 0,0 km/h (0 Bft) S 180 -4,4 C 3,7 C 0,0 km/h (0 Bft)
21.12.2013 05:45 -3,9 C 95 % 1031,3 hPa 0,0 l/m 0,0 km/h (0 Bft) S 180 -4,6 C 3,7 C 0,0 km/h (0 Bft)
21.12.2013 05:50 -3,9 C 95 % 1031,3 hPa 0,0 l/m 0,0 km/h (0 Bft) S 180 -4,6 C 3,7 C 0,0 km/h (0 Bft)
21.12.2013 05:55 -3,5 C 95 % 1031,3 hPa 0,0 l/m 0,0 km/h (0 Bft) S 180 -4,2 C 3,7 C 0,0 km/h (0 Bft)
21.12.2013 06:00 -3,8 C 95 % 1031,3 hPa 0,0 l/m 0,0 km/h (0 Bft) S 180 -4,5 C 3,7 C 0,0 km/h (0 Bft)
21.12.2013 06:05 -4,0 C 95 % 1031,3 hPa 0,0 l/m 0,0 km/h (0 Bft) S 180 -4,7 C 3,7 C 0,0 km/h (0 Bft)
21.12.2013 06:10 -4,0 C 95 % 1031,3 hPa 0,0 l/m 0,0 km/h (0 Bft) S 180 -4,7 C 3,7 C 0,0 km/h (0 Bft)
21.12.2013 06:15 -4,5 C 94 % 1031,3 hPa 0,0 l/m 0,0 km/h (0 Bft) S 180 -5,3 C 3,7 C 0,0 km/h (0 Bft)
21.12.2013 06:20 -4,6 C 94 % 1031,2 hPa 0,0 l/m 0,0 km/h (0 Bft) S 180 -5,4 C 3,7 C 0,0 km/h (0 Bft)
21.12.2013 06:25 -4,5 C 94 % 1031,2 hPa 0,0 l/m 0,0 km/h (0 Bft) S 180 -5,3 C 3,7 C 0,0 km/h (0 Bft)
21.12.2013 06:30 -4,2 C 94 % 1031,2 hPa 0,0 l/m 0,0 km/h (0 Bft) S 180 -5,0 C 3,7 C 0,0 km/h (0 Bft)
21.12.2013 06:35 -4,2 C 94 % 1031,2 hPa 0,0 l/m 0,0 km/h (0 Bft) S 180 -5,0 C 3,7 C 0,0 km/h (0 Bft)
21.12.2013 06:40 -4,6 C 94 % 1031,0 hPa 0,0 l/m 0,0 km/h (0 Bft) S 180 -5,4 C 3,7 C 0,0 km/h (0 Bft)
21.12.2013 06:45 -4,8 C 94 % 1031,0 hPa 0,0 l/m 0,0 km/h (0 Bft) S 180 -5,6 C 3,7 C 0,0 km/h (0 Bft)
21.12.2013 06:50 -4,8 C 94 % 1031,0 hPa 0,0 l/m 0,0 km/h (0 Bft) S 180 -5,6 C 3,7 C 0,0 km/h (0 Bft)
21.12.2013 06:55 -4,8 C 94 % 1031,0 hPa 0,0 l/m 0,0 km/h (0 Bft) S 180 -5,6 C 3,7 C 0,0 km/h (0 Bft)
21.12.2013 07:00 -4,9 C 94 % 1030,9 hPa 0,0 l/m 0,0 km/h (0 Bft) S 180 -5,7 C 3,7 C 0,0 km/h (0 Bft)
21.12.2013 07:05 -5,1 C 93 % 1030,9 hPa 0,0 l/m 0,0 km/h (0 Bft) S 180 -6,1 C 3,7 C 0,0 km/h (0 Bft)
21.12.2013 07:10 -4,9 C 93 % 1030,9 hPa 0,0 l/m 0,0 km/h (0 Bft) S 180 -5,9 C 3,7 C 0,0 km/h (0 Bft)
21.12.2013 07:15 -5,0 C 93 % 1030,9 hPa 0,0 l/m 0,0 km/h (0 Bft) S 180 -6,0 C 3,7 C 0,0 km/h (0 Bft)
21.12.2013 07:20 -5,1 C 93 % 1031,2 hPa 0,0 l/m 0,0 km/h (0 Bft) S 180 -6,1 C 3,7 C 0,0 km/h (0 Bft)
21.12.2013 07:25 -4,5 C 93 % 1031,2 hPa 0,0 l/m 0,0 km/h (0 Bft) S 180 -5,5 C 3,7 C 0,0 km/h (0 Bft)
21.12.2013 07:30 -4,2 C 93 % 1031,2 hPa 0,0 l/m 0,0 km/h (0 Bft) S 180 -5,2 C 3,7 C 0,0 km/h (0 Bft)
21.12.2013 07:33 -4,2 C 93 % 1031,2 hPa 0,0 l/m 0,0 km/h (0 Bft) S 180 -5,2 C 3,7 C 0,0 km/h (0 Bft)
21.12.2013 07:35 -4,2 C 93 % 1031,2 hPa 0,0 l/m 0,0 km/h (0 Bft) S 180 -5,2 C 3,7 C 0,0 km/h (0 Bft)
21.12.2013 07:40 -3,5 C 94 % 1031,1 hPa 0,0 l/m 0,0 km/h (0 Bft) S 180 -4,3 C 3,7 C 0,0 km/h (0 Bft)
21.12.2013 07:45 -3,1 C 94 % 1031,1 hPa 0,0 l/m 0,0 km/h (0 Bft) S 180 -3,9 C 3,7 C 0,0 km/h (0 Bft)
21.12.2013 07:50 -3,2 C 94 % 1031,1 hPa 0,0 l/m 0,0 km/h (0 Bft) S 180 -4,0 C 3,7 C 0,0 km/h (0 Bft)
21.12.2013 07:55 -2,9 C 94 % 1031,1 hPa 0,0 l/m 0,0 km/h (0 Bft) S 180 -3,7 C 3,7 C 0,0 km/h (0 Bft)
21.12.2013 08:00 -3,0 C 94 % 1031,1 hPa 0,0 l/m 0,0 km/h (0 Bft) S 180 -3,8 C 3,7 C 0,0 km/h (0 Bft)
21.12.2013 08:05 -4,3 C 94 % 1031,1 hPa 0,0 l/m 0,0 km/h (0 Bft) S 180 -5,1 C 3,7 C 0,0 km/h (0 Bft)
21.12.2013 08:10 -4,9 C 93 % 1031,1 hPa 0,0 l/m 0,0 km/h (0 Bft) S 180 -5,9 C 3,7 C 0,0 km/h (0 Bft)
21.12.2013 08:15 -4,7 C 93 % 1031,1 hPa 0,0 l/m 0,0 km/h (0 Bft) S 180 -5,7 C 3,7 C 0,0 km/h (0 Bft)
21.12.2013 08:20 -4,6 C 93 % 1030,9 hPa 0,0 l/m 0,0 km/h (0 Bft) S 180 -5,6 C 3,7 C 0,0 km/h (0 Bft)
21.12.2013 08:25 -4,2 C 93 % 1030,9 hPa 0,0 l/m 0,0 km/h (0 Bft) S 180 -5,2 C 3,7 C 0,0 km/h (0 Bft)
21.12.2013 08:30 -4,4 C 93 % 1030,9 hPa 0,0 l/m 0,0 km/h (0 Bft) S 180 -5,4 C 3,7 C 0,0 km/h (0 Bft)
21.12.2013 08:35 -4,4 C 93 % 1030,9 hPa 0,0 l/m 0,0 km/h (0 Bft) S 180 -5,4 C 3,7 C 0,0 km/h (0 Bft)
21.12.2013 08:40 -4,1 C 93 % 1031,2 hPa 0,0 l/m 0,0 km/h (0 Bft) S 180 -5,1 C 3,7 C 0,0 km/h (0 Bft)
21.12.2013 08:45 -3,5 C 93 % 1031,2 hPa 0,0 l/m 0,0 km/h (0 Bft) S 180 -4,5 C 3,7 C 0,0 km/h (0 Bft)
21.12.2013 08:50 -2,9 C 94 % 1031,2 hPa 0,0 l/m 0,0 km/h (0 Bft) S 180 -3,7 C 3,7 C 0,0 km/h (0 Bft)
21.12.2013 08:55 -2,9 C 94 % 1031,2 hPa 0,0 l/m 0,0 km/h (0 Bft) S 180 -3,7 C 3,7 C 0,0 km/h (0 Bft)
21.12.2013 09:00 -3,1 C 94 % 1031,5 hPa 0,0 l/m 0,0 km/h (0 Bft) S 180 -3,9 C 3,7 C 0,0 km/h (0 Bft)
21.12.2013 09:05 -3,6 C 94 % 1031,5 hPa 0,0 l/m 0,0 km/h (0 Bft) S 180 -4,4 C 3,7 C 0,0 km/h (0 Bft)
21.12.2013 09:10 -3,1 C 94 % 1031,5 hPa 0,0 l/m 0,0 km/h (0 Bft) S 180 -3,9 C 3,7 C 0,0 km/h (0 Bft)
21.12.2013 09:15 -3,4 C 94 % 1031,5 hPa 0,0 l/m 0,0 km/h (0 Bft) S 180 -4,2 C 3,7 C 0,0 km/h (0 Bft)
21.12.2013 09:20 -3,6 C 94 % 1031,5 hPa 0,0 l/m 0,0 km/h (0 Bft) S 180 -4,4 C 3,7 C 0,0 km/h (0 Bft)
21.12.2013 09:25 -3,5 C 94 % 1031,5 hPa 0,0 l/m 0,0 km/h (0 Bft) S 180 -4,3 C 3,7 C 0,0 km/h (0 Bft)
21.12.2013 09:30 -3,5 C 94 % 1031,5 hPa 0,0 l/m 0,0 km/h (0 Bft) S 180 -4,3 C 3,7 C 0,0 km/h (0 Bft)
21.12.2013 09:35 -3,1 C 94 % 1031,5 hPa 0,0 l/m 0,0 km/h (0 Bft) S 180 -3,9 C 3,7 C 0,0 km/h (0 Bft)
21.12.2013 09:40 -2,8 C 94 % 1031,5 hPa 0,0 l/m 0,0 km/h (0 Bft) S 180 -3,6 C 3,7 C 0,0 km/h (0 Bft)
21.12.2013 09:45 -3,3 C 94 % 1031,5 hPa 0,0 l/m 0,0 km/h (0 Bft) S 180 -4,1 C 3,7 C 0,0 km/h (0 Bft)
21.12.2013 09:50 -2,2 C 94 % 1031,5 hPa 0,0 l/m 0,0 km/h (0 Bft) S 180 -3,0 C 3,7 C 0,0 km/h (0 Bft)
21.12.2013 09:55 -2,0 C 94 % 1031,5 hPa 0,0 l/m 0,0 km/h (0 Bft) S 180 -2,8 C 3,7 C 0,0 km/h (0 Bft)
21.12.2013 10:00 -2,1 C 94 % 1031,3 hPa 0,0 l/m 0,0 km/h (0 Bft) S 180 -2,9 C 3,7 C 0,0 km/h (0 Bft)
21.12.2013 10:05 -2,6 C 94 % 1031,3 hPa 0,0 l/m 0,0 km/h (0 Bft) S 180 -3,4 C 3,7 C 0,0 km/h (0 Bft)
21.12.2013 10:10 -2,1 C 94 % 1031,3 hPa 0,0 l/m 0,0 km/h (0 Bft) S 180 -2,9 C 3,7 C 0,0 km/h (0 Bft)
21.12.2013 10:15 -2,1 C 95 % 1031,3 hPa 0,0 l/m 0,0 km/h (0 Bft) S 180 -2,8 C 3,7 C 0,0 km/h (0 Bft)
21.12.2013 10:20 -2,2 C 95 % 1031,2 hPa 0,0 l/m 0,0 km/h (0 Bft) S 180 -2,9 C 3,7 C 0,0 km/h (0 Bft)
21.12.2013 10:25 -2,1 C 95 % 1031,2 hPa 0,0 l/m 0,0 km/h (0 Bft) S 180 -2,8 C 3,7 C 0,0 km/h (0 Bft)
21.12.2013 10:30 -1,5 C 95 % 1031,2 hPa 0,0 l/m 0,0 km/h (0 Bft) S 180 -2,2 C 3,7 C 0,0 km/h (0 Bft)
21.12.2013 10:35 -1,5 C 95 % 1031,2 hPa 0,0 l/m 0,0 km/h (0 Bft) S 180 -2,2 C 3,7 C 0,0 km/h (0 Bft)
21.12.2013 10:40 -1,3 C 95 % 1030,9 hPa 0,0 l/m 0,0 km/h (0 Bft) S 180 -2,0 C 3,7 C 0,0 km/h (0 Bft)
21.12.2013 10:45 -1,1 C 95 % 1030,9 hPa 0,0 l/m 0,0 km/h (0 Bft) S 180 -1,8 C 3,7 C 0,0 km/h (0 Bft)
21.12.2013 10:50 -0,8 C 95 % 1030,9 hPa 0,0 l/m 0,0 km/h (0 Bft) S 180 -1,5 C 3,7 C 0,0 km/h (0 Bft)
21.12.2013 10:55 -0,8 C 95 % 1030,9 hPa 0,0 l/m 0,0 km/h (0 Bft) S 180 -1,5 C 3,7 C 0,0 km/h (0 Bft)
21.12.2013 11:00 -0,7 C 95 % 1030,9 hPa 0,0 l/m 0,0 km/h (0 Bft) S 180 -1,4 C 3,7 C 0,0 km/h (0 Bft)
21.12.2013 11:05 -0,6 C 95 % 1030,9 hPa 0,0 l/m 0,0 km/h (0 Bft) S 180 -1,3 C 3,7 C 0,0 km/h (0 Bft)
21.12.2013 11:10 -0,7 C 95 % 1030,9 hPa 0,0 l/m 0,0 km/h (0 Bft) S 180 -1,4 C 3,7 C 0,0 km/h (0 Bft)
21.12.2013 11:15 -0,5 C 95 % 1030,9 hPa 0,0 l/m 0,0 km/h (0 Bft) S 180 -1,2 C 3,7 C 0,0 km/h (0 Bft)
21.12.2013 11:20 -0,4 C 95 % 1030,8 hPa 0,0 l/m 0,0 km/h (0 Bft) S 180 -1,1 C 3,7 C 0,0 km/h (0 Bft)
21.12.2013 11:25 -0,3 C 96 % 1030,8 hPa 0,0 l/m 0,0 km/h (0 Bft) S 180 -0,9 C 3,7 C 0,0 km/h (0 Bft)
21.12.2013 11:30 -0,1 C 96 % 1030,8 hPa 0,0 l/m 0,0 km/h (0 Bft) S 180 -0,7 C 3,7 C 0,0 km/h (0 Bft)
21.12.2013 11:35 -0,1 C 96 % 1030,8 hPa 0,0 l/m 0,0 km/h (0 Bft) S 180 -0,7 C 3,7 C 0,0 km/h (0 Bft)
21.12.2013 11:40 0,0 C 96 % 1030,8 hPa 0,0 l/m 0,0 km/h (0 Bft) S 180 -0,6 C 3,7 C 0,0 km/h (0 Bft)
21.12.2013 11:45 0,1 C 96 % 1030,8 hPa 0,0 l/m 0,0 km/h (0 Bft) S 180 -0,5 C 3,7 C 0,0 km/h (0 Bft)
21.12.2013 11:50 0,2 C 96 % 1030,8 hPa 0,0 l/m 0,0 km/h (0 Bft) S 180 -0,4 C 3,7 C 0,0 km/h (0 Bft)
21.12.2013 11:55 0,1 C 96 % 1030,8 hPa 0,0 l/m 0,0 km/h (0 Bft) S 180 -0,5 C 3,7 C 0,0 km/h (0 Bft)
21.12.2013 12:00 0,2 C 96 % 1030,6 hPa 0,0 l/m 0,0 km/h (0 Bft) S 180 -0,4 C 3,7 C 0,0 km/h (0 Bft)
21.12.2013 12:05 0,3 C 96 % 1030,6 hPa 0,0 l/m 0,0 km/h (0 Bft) S 180 -0,3 C 3,7 C 0,0 km/h (0 Bft)
21.12.2013 12:10 0,5 C 96 % 1030,6 hPa 0,0 l/m 0,0 km/h (0 Bft) S 180 -0,1 C 3,7 C 0,0 km/h (0 Bft)
21.12.2013 12:15 0,7 C 96 % 1030,6 hPa 0,0 l/m 0,0 km/h (0 Bft) S 180 0,1 C 3,7 C 0,0 km/h (0 Bft)
21.12.2013 12:20 0,8 C 96 % 1030,2 hPa 0,0 l/m 0,0 km/h (0 Bft) S 180 0,2 C 3,7 C 0,0 km/h (0 Bft)
21.12.2013 12:25 0,9 C 96 % 1030,2 hPa 0,0 l/m 0,0 km/h (0 Bft) S 180 0,3 C 3,7 C 0,0 km/h (0 Bft)
21.12.2013 12:30 1,1 C 96 % 1030,2 hPa 0,0 l/m 0,0 km/h (0 Bft) S 180 0,5 C 3,7 C 0,0 km/h (0 Bft)
21.12.2013 12:33 1,2 C 96 % 1030,2 hPa 0,0 l/m 0,0 km/h (0 Bft) S 180 0,6 C 3,7 C 0,0 km/h (0 Bft)
21.12.2013 12:35 1,2 C 96 % 1030,2 hPa 0,0 l/m 0,0 km/h (0 Bft) S 180 0,6 C 3,7 C 0,0 km/h (0 Bft)
21.12.2013 12:40 1,3 C 96 % 1030,1 hPa 0,0 l/m 0,0 km/h (0 Bft) S 180 0,7 C 3,7 C 0,0 km/h (0 Bft)
21.12.2013 12:45 1,5 C 96 % 1030,1 hPa 0,0 l/m 0,0 km/h (0 Bft) S 180 0,9 C 3,7 C 0,0 km/h (0 Bft)
21.12.2013 12:50 1,7 C 96 % 1030,1 hPa 0,0 l/m 0,0 km/h (0 Bft) S 180 1,1 C 3,7 C 0,0 km/h (0 Bft)
21.12.2013 12:55 1,8 C 96 % 1030,1 hPa 0,0 l/m 0,0 km/h (0 Bft) S 180 1,2 C 3,7 C 0,0 km/h (0 Bft)
21.12.2013 13:00 1,9 C 96 % 1029,9 hPa 0,0 l/m 0,0 km/h (0 Bft) S 180 1,3 C 3,7 C 0,0 km/h (0 Bft)
21.12.2013 13:05 2,3 C 96 % 1029,9 hPa 0,0 l/m 0,0 km/h (0 Bft) S 180 1,7 C 3,7 C 0,0 km/h (0 Bft)
21.12.2013 13:10 2,5 C 96 % 1029,9 hPa 0,0 l/m 0,0 km/h (0 Bft) S 180 1,9 C 3,7 C 0,0 km/h (0 Bft)
21.12.2013 13:15 2,5 C 96 % 1029,9 hPa 0,0 l/m 0,0 km/h (0 Bft) S 180 1,9 C 3,7 C 0,0 km/h (0 Bft)
21.12.2013 13:20 2,7 C 96 % 1029,6 hPa 0,0 l/m 0,0 km/h (0 Bft) S 180 2,1 C 3,7 C 0,0 km/h (0 Bft)
21.12.2013 13:25 2,6 C 96 % 1029,6 hPa 0,0 l/m 0,0 km/h (0 Bft) S 180 2,0 C 3,7 C 0,0 km/h (0 Bft)
21.12.2013 13:30 2,7 C 96 % 1029,6 hPa 0,0 l/m 0,0 km/h (0 Bft) S 180 2,1 C 3,7 C 0,0 km/h (0 Bft)
21.12.2013 13:35 2,9 C 96 % 1029,6 hPa 0,0 l/m 0,0 km/h (0 Bft) S 180 2,3 C 3,7 C 0,0 km/h (0 Bft)
21.12.2013 13:40 3,0 C 95 % 1029,6 hPa 0,0 l/m 0,0 km/h (0 Bft) S 180 2,3 C 3,7 C 0,0 km/h (0 Bft)
21.12.2013 13:45 3,1 C 95 % 1029,6 hPa 0,0 l/m 0,0 km/h (0 Bft) S 180 2,4 C 3,7 C 0,0 km/h (0 Bft)
21.12.2013 13:50 3,3 C 94 % 1029,6 hPa 0,0 l/m 0,0 km/h (0 Bft) S 180 2,4 C 3,7 C 0,0 km/h (0 Bft)
21.12.2013 13:55 3,4 C 94 % 1029,6 hPa 0,0 l/m 0,0 km/h (0 Bft) S 180 2,5 C 3,7 C 0,0 km/h (0 Bft)
21.12.2013 14:00 3,7 C 94 % 1029,4 hPa 0,0 l/m 0,0 km/h (0 Bft) S 180 2,8 C 3,7 C 0,0 km/h (0 Bft)
21.12.2013 14:05 4,3 C 93 % 1029,4 hPa 0,0 l/m 0,0 km/h (0 Bft) S 180 3,3 C 3,7 C 0,0 km/h (0 Bft)
21.12.2013 14:10 3,9 C 91 % 1029,4 hPa 0,0 l/m 0,0 km/h (0 Bft) S 180 2,6 C 3,7 C 0,0 km/h (0 Bft)
21.12.2013 14:15 3,8 C 91 % 1029,4 hPa 0,0 l/m 0,0 km/h (0 Bft) S 180 2,5 C 3,7 C 0,0 km/h (0 Bft)
21.12.2013 14:20 3,7 C 90 % 1029,6 hPa 0,0 l/m 0,0 km/h (0 Bft) S 180 2,2 C 3,7 C 0,0 km/h (0 Bft)
21.12.2013 14:25 3,8 C 90 % 1029,6 hPa 0,0 l/m 0,0 km/h (0 Bft) S 180 2,3 C 3,7 C 0,0 km/h (0 Bft)
21.12.2013 14:30 3,5 C 90 % 1029,6 hPa 0,0 l/m 0,0 km/h (0 Bft) S 180 2,0 C 3,7 C 0,0 km/h (0 Bft)
21.12.2013 14:35 3,6 C 90 % 1029,6 hPa 0,0 l/m 0,0 km/h (0 Bft) S 180 2,1 C 3,7 C 0,0 km/h (0 Bft)
21.12.2013 14:40 3,8 C 90 % 1029,6 hPa 0,0 l/m 0,0 km/h (0 Bft) S 180 2,3 C 3,7 C 0,0 km/h (0 Bft)
21.12.2013 14:45 3,7 C 90 % 1029,6 hPa 0,0 l/m 0,0 km/h (0 Bft) S 180 2,2 C 3,7 C 0,0 km/h (0 Bft)
21.12.2013 14:50 3,6 C 90 % 1029,6 hPa 0,0 l/m 0,0 km/h (0 Bft) S 180 2,1 C 3,7 C 0,0 km/h (0 Bft)
21.12.2013 14:55 3,5 C 90 % 1029,6 hPa 0,0 l/m 0,0 km/h (0 Bft) S 180 2,0 C 3,7 C 0,0 km/h (0 Bft)
21.12.2013 15:00 3,6 C 90 % 1029,7 hPa 0,0 l/m 0,0 km/h (0 Bft) S 180 2,1 C 3,7 C 0,0 km/h (0 Bft)
21.12.2013 15:05 3,8 C 90 % 1029,7 hPa 0,0 l/m 0,0 km/h (0 Bft) S 180 2,3 C 3,7 C 0,0 km/h (0 Bft)
21.12.2013 15:10 4,0 C 90 % 1029,7 hPa 0,0 l/m 0,0 km/h (0 Bft) S 180 2,5 C 3,7 C 0,0 km/h (0 Bft)
21.12.2013 15:15 4,0 C 90 % 1029,7 hPa 0,0 l/m 0,0 km/h (0 Bft) S 180 2,5 C 3,7 C 0,0 km/h (0 Bft)
21.12.2013 15:20 3,9 C 90 % 1029,6 hPa 0,0 l/m 0,0 km/h (0 Bft) S 180 2,4 C 3,7 C 0,0 km/h (0 Bft)
21.12.2013 15:25 3,9 C 90 % 1029,6 hPa 0,0 l/m 0,0 km/h (0 Bft) S 180 2,4 C 3,7 C 0,0 km/h (0 Bft)
21.12.2013 15:30 3,9 C 90 % 1029,6 hPa 0,0 l/m 0,0 km/h (0 Bft) S 180 2,4 C 3,7 C 0,0 km/h (0 Bft)
21.12.2013 15:35 3,4 C 90 % 1029,6 hPa 0,0 l/m 0,0 km/h (0 Bft) S 180 1,9 C 3,7 C 0,0 km/h (0 Bft)
21.12.2013 15:40 3,8 C 90 % 1029,6 hPa 0,0 l/m 0,0 km/h (0 Bft) S 180 2,3 C 3,7 C 0,0 km/h (0 Bft)
21.12.2013 15:45 3,9 C 90 % 1029,6 hPa 0,0 l/m 0,0 km/h (0 Bft) S 180 2,4 C 3,7 C 0,0 km/h (0 Bft)
21.12.2013 15:50 3,7 C 90 % 1029,6 hPa 0,0 l/m 0,0 km/h (0 Bft) S 180 2,2 C 3,7 C 0,0 km/h (0 Bft)
21.12.2013 15:55 3,6 C 90 % 1029,6 hPa 0,0 l/m 0,0 km/h (0 Bft) S 180 2,1 C 3,7 C 0,0 km/h (0 Bft)
21.12.2013 16:00 3,3 C 90 % 1029,6 hPa 0,0 l/m 0,0 km/h (0 Bft) S 180 1,8 C 3,7 C 0,0 km/h (0 Bft)
21.12.2013 16:05 2,6 C 91 % 1029,6 hPa 0,0 l/m 0,0 km/h (0 Bft) S 180 1,3 C 3,7 C 0,0 km/h (0 Bft)
21.12.2013 16:10 2,6 C 91 % 1029,6 hPa 0,0 l/m 0,0 km/h (0 Bft) S 180 1,3 C 3,7 C 0,0 km/h (0 Bft)
21.12.2013 16:15 2,1 C 91 % 1029,6 hPa 0,0 l/m 0,0 km/h (0 Bft) S 180 0,8 C 3,7 C 0,0 km/h (0 Bft)
21.12.2013 16:20 2,3 C 91 % 1029,4 hPa 0,0 l/m 0,0 km/h (0 Bft) S 180 1,0 C 3,7 C 0,0 km/h (0 Bft)
21.12.2013 16:25 2,3 C 91 % 1029,4 hPa 0,0 l/m 0,0 km/h (0 Bft) S 180 1,0 C 3,7 C 0,0 km/h (0 Bft)
21.12.2013 16:30 2,0 C 91 % 1029,4 hPa 0,0 l/m 0,0 km/h (0 Bft) S 180 0,7 C 3,7 C 0,0 km/h (0 Bft)
21.12.2013 16:35 1,7 C 91 % 1029,4 hPa 0,0 l/m 0,0 km/h (0 Bft) S 180 0,4 C 3,7 C 0,0 km/h (0 Bft)
21.12.2013 16:40 1,6 C 91 % 1029,1 hPa 0,0 l/m 0,0 km/h (0 Bft) S 180 0,3 C 3,7 C 0,0 km/h (0 Bft)
21.12.2013 16:45 1,2 C 91 % 1029,1 hPa 0,0 l/m 0,0 km/h (0 Bft) S 180 -0,1 C 3,7 C 0,0 km/h (0 Bft)
21.12.2013 16:50 0,3 C 91 % 1029,1 hPa 0,0 l/m 0,0 km/h (0 Bft) S 180 -1,0 C 3,7 C 0,0 km/h (0 Bft)
21.12.2013 16:55 0,4 C 91 % 1029,1 hPa 0,0 l/m 0,0 km/h (0 Bft) S 180 -0,9 C 3,7 C 0,0 km/h (0 Bft)
21.12.2013 17:00 0,2 C 91 % 1029,1 hPa 0,0 l/m 0,0 km/h (0 Bft) S 180 -1,1 C 3,7 C 0,0 km/h (0 Bft)
21.12.2013 17:05 -0,4 C 91 % 1029,1 hPa 0,0 l/m 0,0 km/h (0 Bft) S 180 -1,7 C 3,7 C 0,0 km/h (0 Bft)
21.12.2013 17:10 -0,6 C 92 % 1029,1 hPa 0,0 l/m 0,0 km/h (0 Bft) S 180 -1,7 C 3,7 C 0,0 km/h (0 Bft)
21.12.2013 17:15 -0,6 C 92 % 1029,1 hPa 0,0 l/m 0,0 km/h (0 Bft) S 180 -1,7 C 3,7 C 0,0 km/h (0 Bft)
21.12.2013 17:20 -0,5 C 92 % 1028,9 hPa 0,0 l/m 0,0 km/h (0 Bft) S 180 -1,6 C 3,7 C 0,0 km/h (0 Bft)
21.12.2013 17:25 -0,7 C 92 % 1028,9 hPa 0,0 l/m 0,0 km/h (0 Bft) S 180 -1,8 C 3,7 C 0,0 km/h (0 Bft)
21.12.2013 17:30 -0,8 C 93 % 1028,9 hPa 0,0 l/m 0,0 km/h (0 Bft) S 180 -1,8 C 3,7 C 0,0 km/h (0 Bft)
21.12.2013 17:33 -0,8 C 93 % 1028,9 hPa 0,0 l/m 0,0 km/h (0 Bft) S 180 -1,8 C 3,7 C 0,0 km/h (0 Bft)
21.12.2013 17:35 -0,8 C 93 % 1028,9 hPa 0,0 l/m 0,0 km/h (0 Bft) S 180 -1,8 C 3,7 C 0,0 km/h (0 Bft)
21.12.2013 17:40 -1,0 C 93 % 1028,8 hPa 0,0 l/m 0,0 km/h (0 Bft) S 180 -2,0 C 3,7 C 0,0 km/h (0 Bft)
21.12.2013 17:45 -1,0 C 93 % 1028,8 hPa 0,0 l/m 0,0 km/h (0 Bft) S 180 -2,0 C 3,7 C 0,0 km/h (0 Bft)
21.12.2013 17:50 -0,9 C 93 % 1028,8 hPa 0,0 l/m 0,0 km/h (0 Bft) S 180 -1,9 C 3,7 C 0,0 km/h (0 Bft)
21.12.2013 17:55 -0,9 C 93 % 1028,8 hPa 0,0 l/m 0,0 km/h (0 Bft) S 180 -1,9 C 3,7 C 0,0 km/h (0 Bft)
21.12.2013 18:00 -1,2 C 93 % 1028,8 hPa 0,0 l/m 0,0 km/h (0 Bft) S 180 -2,2 C 3,7 C 0,0 km/h (0 Bft)
21.12.2013 18:05 -0,8 C 94 % 1028,8 hPa 0,0 l/m 0,0 km/h (0 Bft) S 180 -1,6 C 3,7 C 0,0 km/h (0 Bft)
21.12.2013 18:10 -1,3 C 94 % 1028,8 hPa 0,0 l/m 0,0 km/h (0 Bft) S 180 -2,1 C 3,7 C 0,0 km/h (0 Bft)
21.12.2013 18:15 -1,7 C 94 % 1028,8 hPa 0,0 l/m 0,0 km/h (0 Bft) S 180 -2,5 C 3,7 C 0,0 km/h (0 Bft)
21.12.2013 18:20 -1,6 C 94 % 1028,6 hPa 0,0 l/m 0,0 km/h (0 Bft) S 180 -2,4 C 3,7 C 0,0 km/h (0 Bft)
21.12.2013 18:25 -1,6 C 94 % 1028,6 hPa 0,0 l/m 0,0 km/h (0 Bft) S 180 -2,4 C 3,7 C 0,0 km/h (0 Bft)
21.12.2013 18:30 -1,6 C 94 % 1028,6 hPa 0,0 l/m 0,0 km/h (0 Bft) S 180 -2,4 C 3,7 C 0,0 km/h (0 Bft)
21.12.2013 18:35 -1,8 C 94 % 1028,6 hPa 0,0 l/m 0,0 km/h (0 Bft) S 180 -2,6 C 3,7 C 0,0 km/h (0 Bft)
21.12.2013 18:40 -1,9 C 94 % 1028,5 hPa 0,0 l/m 0,0 km/h (0 Bft) S 180 -2,7 C 3,7 C 0,0 km/h (0 Bft)
21.12.2013 18:45 -2,0 C 94 % 1028,5 hPa 0,0 l/m 0,0 km/h (0 Bft) S 180 -2,8 C 3,7 C 0,0 km/h (0 Bft)
21.12.2013 18:50 -1,8 C 94 % 1028,5 hPa 0,0 l/m 0,0 km/h (0 Bft) S 180 -2,6 C 3,7 C 0,0 km/h (0 Bft)
21.12.2013 18:55 -1,5 C 95 % 1028,5 hPa 0,0 l/m 0,0 km/h (0 Bft) S 180 -2,2 C 3,7 C 0,0 km/h (0 Bft)
21.12.2013 19:00 -1,2 C 95 % 1028,5 hPa 0,0 l/m 0,0 km/h (0 Bft) S 180 -1,9 C 3,7 C 0,0 km/h (0 Bft)
21.12.2013 19:05 -1,6 C 95 % 1028,5 hPa 0,0 l/m 0,0 km/h (0 Bft) S 180 -2,3 C 3,7 C 0,0 km/h (0 Bft)
21.12.2013 19:10 -1,4 C 95 % 1028,5 hPa 0,0 l/m 0,0 km/h (0 Bft) S 180 -2,1 C 3,7 C 0,0 km/h (0 Bft)
21.12.2013 19:15 -1,4 C 95 % 1028,5 hPa 0,0 l/m 0,0 km/h (0 Bft) S 180 -2,1 C 3,7 C 0,0 km/h (0 Bft)
21.12.2013 19:20 -1,8 C 95 % 1028,4 hPa 0,0 l/m 0,0 km/h (0 Bft) S 180 -2,5 C 3,7 C 0,0 km/h (0 Bft)
21.12.2013 19:25 -1,8 C 95 % 1028,4 hPa 0,0 l/m 0,0 km/h (0 Bft) S 180 -2,5 C 3,7 C 0,0 km/h (0 Bft)
21.12.2013 19:30 -1,7 C 95 % 1028,4 hPa 0,0 l/m 0,0 km/h (0 Bft) S 180 -2,4 C 3,7 C 0,0 km/h (0 Bft)
21.12.2013 19:35 -2,0 C 95 % 1028,4 hPa 0,0 l/m 0,0 km/h (0 Bft) S 180 -2,7 C 3,7 C 0,0 km/h (0 Bft)
21.12.2013 19:40 -2,3 C 95 % 1028,2 hPa 0,0 l/m 0,0 km/h (0 Bft) S 180 -3,0 C 3,7 C 0,0 km/h (0 Bft)
21.12.2013 19:45 -2,3 C 95 % 1028,2 hPa 0,0 l/m 0,0 km/h (0 Bft) S 180 -3,0 C 3,7 C 0,0 km/h (0 Bft)
21.12.2013 19:50 -2,2 C 95 % 1028,2 hPa 0,0 l/m 0,0 km/h (0 Bft) S 180 -2,9 C 3,7 C 0,0 km/h (0 Bft)
21.12.2013 19:55 -2,3 C 95 % 1028,2 hPa 0,0 l/m 0,0 km/h (0 Bft) S 180 -3,0 C 3,7 C 0,0 km/h (0 Bft)
21.12.2013 20:00 -2,4 C 95 % 1028,2 hPa 0,0 l/m 0,0 km/h (0 Bft) S 180 -3,1 C 3,7 C 0,0 km/h (0 Bft)
21.12.2013 20:05 -2,5 C 95 % 1028,2 hPa 0,0 l/m 0,0 km/h (0 Bft) S 180 -3,2 C 3,7 C 0,0 km/h (0 Bft)
21.12.2013 20:10 -2,4 C 95 % 1028,2 hPa 0,0 l/m 0,0 km/h (0 Bft) S 180 -3,1 C 3,7 C 0,0 km/h (0 Bft)
21.12.2013 20:15 -2,5 C 95 % 1028,2 hPa 0,0 l/m 0,0 km/h (0 Bft) S 180 -3,2 C 3,7 C 0,0 km/h (0 Bft)
21.12.2013 20:20 -1,8 C 95 % 1028,0 hPa 0,0 l/m 0,0 km/h (0 Bft) S 180 -2,5 C 3,7 C 0,0 km/h (0 Bft)
21.12.2013 20:25 -2,2 C 95 % 1028,0 hPa 0,0 l/m 0,0 km/h (0 Bft) S 180 -2,9 C 3,7 C 0,0 km/h (0 Bft)
21.12.2013 20:30 -2,1 C 95 % 1028,0 hPa 0,0 l/m 0,0 km/h (0 Bft) S 180 -2,8 C 3,7 C 0,0 km/h (0 Bft)
21.12.2013 20:35 -2,2 C 95 % 1028,0 hPa 0,0 l/m 0,0 km/h (0 Bft) S 180 -2,9 C 3,7 C 0,0 km/h (0 Bft)
21.12.2013 20:40 -2,1 C 95 % 1028,0 hPa 0,0 l/m 0,0 km/h (0 Bft) S 180 -2,8 C 3,7 C 0,0 km/h (0 Bft)
21.12.2013 20:45 -2,3 C 95 % 1028,0 hPa 0,0 l/m 0,0 km/h (0 Bft) S 180 -3,0 C 3,7 C 0,0 km/h (0 Bft)
21.12.2013 20:50 -2,4 C 95 % 1028,0 hPa 0,0 l/m 0,0 km/h (0 Bft) S 180 -3,1 C 3,7 C 0,0 km/h (0 Bft)
21.12.2013 20:55 -2,3 C 95 % 1028,0 hPa 0,0 l/m 0,0 km/h (0 Bft) S 180 -3,0 C 3,7 C 0,0 km/h (0 Bft)
21.12.2013 21:00 -2,2 C 95 % 1027,9 hPa 0,0 l/m 0,0 km/h (0 Bft) S 180 -2,9 C 3,7 C 0,0 km/h (0 Bft)
21.12.2013 21:05 -2,1 C 95 % 1027,9 hPa 0,0 l/m 0,0 km/h (0 Bft) S 180 -2,8 C 3,7 C 0,0 km/h (0 Bft)
21.12.2013 21:10 -2,5 C 95 % 1027,9 hPa 0,0 l/m 0,0 km/h (0 Bft) S 180 -3,2 C 3,7 C 0,0 km/h (0 Bft)
21.12.2013 21:15 -2,1 C 95 % 1027,9 hPa 0,0 l/m 0,0 km/h (0 Bft) S 180 -2,8 C 3,7 C 0,0 km/h (0 Bft)
21.12.2013 21:20 -1,9 C 95 % 1027,7 hPa 0,0 l/m 0,0 km/h (0 Bft) S 180 -2,6 C 3,7 C 0,0 km/h (0 Bft)
21.12.2013 21:25 -2,3 C 95 % 1027,7 hPa 0,0 l/m 0,0 km/h (0 Bft) S 180 -3,0 C 3,7 C 0,0 km/h (0 Bft)
21.12.2013 21:30 -2,2 C 95 % 1027,7 hPa 0,0 l/m 0,0 km/h (0 Bft) S 180 -2,9 C 3,7 C 0,0 km/h (0 Bft)
21.12.2013 21:35 -2,5 C 95 % 1027,7 hPa 0,0 l/m 0,0 km/h (0 Bft) S 180 -3,2 C 3,7 C 0,0 km/h (0 Bft)
21.12.2013 21:40 -2,4 C 95 % 1027,7 hPa 0,0 l/m 0,0 km/h (0 Bft) S 180 -3,1 C 3,7 C 0,0 km/h (0 Bft)
21.12.2013 21:45 -2,2 C 95 % 1027,7 hPa 0,0 l/m 0,0 km/h (0 Bft) S 180 -2,9 C 3,7 C 0,0 km/h (0 Bft)
21.12.2013 21:50 -2,4 C 95 % 1027,7 hPa 0,0 l/m 0,0 km/h (0 Bft) S 180 -3,1 C 3,7 C 0,0 km/h (0 Bft)
21.12.2013 21:55 -2,3 C 95 % 1027,7 hPa 0,0 l/m 0,0 km/h (0 Bft) S 180 -3,0 C 3,7 C 0,0 km/h (0 Bft)
21.12.2013 22:00 -2,5 C 95 % 1027,4 hPa 0,0 l/m 0,0 km/h (0 Bft) S 180 -3,2 C 3,7 C 0,0 km/h (0 Bft)
21.12.2013 22:05 -2,5 C 95 % 1027,4 hPa 0,0 l/m 0,0 km/h (0 Bft) S 180 -3,2 C 3,7 C 0,0 km/h (0 Bft)
21.12.2013 22:10 -2,5 C 95 % 1027,4 hPa 0,0 l/m 0,0 km/h (0 Bft) S 180 -3,2 C 3,7 C 0,0 km/h (0 Bft)
21.12.2013 22:15 -2,4 C 95 % 1027,4 hPa 0,0 l/m 0,0 km/h (0 Bft) S 180 -3,1 C 3,7 C 0,0 km/h (0 Bft)
21.12.2013 22:20 -2,6 C 95 % 1027,4 hPa 0,0 l/m 0,0 km/h (0 Bft) S 180 -3,3 C 3,7 C 0,0 km/h (0 Bft)
21.12.2013 22:25 -2,8 C 95 % 1027,4 hPa 0,0 l/m 0,0 km/h (0 Bft) S 180 -3,5 C 3,7 C 0,0 km/h (0 Bft)
21.12.2013 22:30 -2,7 C 95 % 1027,4 hPa 0,0 l/m 0,0 km/h (0 Bft) S 180 -3,4 C 3,7 C 0,0 km/h (0 Bft)
21.12.2013 22:33 -2,8 C 95 % 1027,4 hPa 0,0 l/m 0,0 km/h (0 Bft) S 180 -3,5 C 3,7 C 0,0 km/h (0 Bft)
21.12.2013 22:35 -2,8 C 95 % 1027,4 hPa 0,0 l/m 0,0 km/h (0 Bft) S 180 -3,5 C 3,7 C 0,0 km/h (0 Bft)
21.12.2013 22:40 -2,9 C 95 % 1027,3 hPa 0,0 l/m 0,0 km/h (0 Bft) S 180 -3,6 C 3,7 C 0,0 km/h (0 Bft)
21.12.2013 22:45 -2,3 C 95 % 1027,3 hPa 0,0 l/m 0,0 km/h (0 Bft) S 180 -3,0 C 3,7 C 0,0 km/h (0 Bft)
21.12.2013 22:50 -2,5 C 95 % 1027,3 hPa 0,0 l/m 0,0 km/h (0 Bft) S 180 -3,2 C 3,7 C 0,0 km/h (0 Bft)
21.12.2013 22:55 -2,3 C 95 % 1027,3 hPa 0,0 l/m 0,0 km/h (0 Bft) S 180 -3,0 C 3,7 C 0,0 km/h (0 Bft)
21.12.2013 23:00 -2,7 C 95 % 1027,3 hPa 0,0 l/m 0,0 km/h (0 Bft) S 180 -3,4 C 3,7 C 0,0 km/h (0 Bft)
21.12.2013 23:05 -2,5 C 95 % 1027,3 hPa 0,0 l/m 0,0 km/h (0 Bft) S 180 -3,2 C 3,7 C 0,0 km/h (0 Bft)
21.12.2013 23:10 -2,5 C 95 % 1027,3 hPa 0,0 l/m 0,0 km/h (0 Bft) S 180 -3,2 C 3,7 C 0,0 km/h (0 Bft)
21.12.2013 23:15 -2,2 C 95 % 1027,3 hPa 0,0 l/m 0,0 km/h (0 Bft) S 180 -2,9 C 3,7 C 0,0 km/h (0 Bft)
21.12.2013 23:20 -2,3 C 95 % 1027,3 hPa 0,0 l/m 0,0 km/h (0 Bft) S 180 -3,0 C 3,7 C 0,0 km/h (0 Bft)
21.12.2013 23:25 -2,3 C 95 % 1027,3 hPa 0,0 l/m 0,0 km/h (0 Bft) S 180 -3,0 C 3,7 C 0,0 km/h (0 Bft)
21.12.2013 23:30 -2,6 C 95 % 1027,3 hPa 0,0 l/m 0,0 km/h (0 Bft) S 180 -3,3 C 3,7 C 0,0 km/h (0 Bft)
21.12.2013 23:35 -2,3 C 95 % 1027,3 hPa 0,0 l/m 0,0 km/h (0 Bft) S 180 -3,0 C 3,7 C 0,0 km/h (0 Bft)
21.12.2013 23:40 -2,3 C 95 % 1027,1 hPa 0,0 l/m 0,0 km/h (0 Bft) S 180 -3,0 C 3,7 C 0,0 km/h (0 Bft)
21.12.2013 23:45 -2,6 C 95 % 1027,1 hPa 0,0 l/m 0,0 km/h (0 Bft) S 180 -3,3 C 3,7 C 0,0 km/h (0 Bft)
21.12.2013 23:50 -2,8 C 95 % 1027,1 hPa 0,0 l/m 0,0 km/h (0 Bft) S 180 -3,5 C 3,7 C 0,0 km/h (0 Bft)
21.12.2013 23:55 -2,9 C 95 % 1027,1 hPa 0,0 l/m 0,0 km/h (0 Bft) S 180 -3,6 C 3,7 C 0,0 km/h (0 Bft)
_ Min-Zeit 07:20 16:00 23:55 - 23:55 - - 07:20 23:55 23:55
Minimum _ -5,1 C 90 % 1027,1 hPa - 0,0 km/h (0 Bft) - - -6,1 C 3,7 C 0,0 km/h (0 Bft)
_ Max-Zeit 14:05 13:35 09:55 23:55 23:55 - - 14:05 23:55 23:55
Maximum _ 4,3 C 96 % 1031,5 hPa 0,0 l/m 0,0 km/h
S (0 Bft)
- - 3,3 C 3,7 C 0,0 km/h
S (0 Bft)
Durchschnitt _ -1,5 C 94 % 1029,9 hPa #0,0 l/m 0,0 km/h (0 Bft) - - - -2,3 C 3,7 C 0,0 km/h (0 Bft)